Anita, PA

4:32 PM EDT on August 28, 2016 (GMT -0400)
Du Bois-Jefferson County

Weather History for KDUJ - October, 2011

Change the Weather History Date:

Sunday, October 23, 2011

  Actual Average Record
Temperature  
Mean Temperature 45 °F 47 °F  
Max Temperature 57 °F 56 °F 78 °F (1963)
Min Temperature 32 °F 38 °F 23 °F (1969)
Degree Days  
Heating Degree Days 20 18  
Month to date heating degree days 158 341  
Since 1 July heating degree days 158 587  
Cooling Degree Days 0 0  
Month to date cooling degree days 0 0  
Year to date cooling degree days 0 360  
Moisture  
Dew Point 35 °F    
Average Humidity 70    
Maximum Humidity 96    
Minimum Humidity 43    
Precipitation  
Precipitation 0.00 in 0.10 in 1.41 in (2001)
Month to date precipitation 1.66 2.31  
Sea Level Pressure  
Sea Level Pressure 30.09 in    
Wind  
Wind Speed 4 mph (SSE)    
Max Wind Speed 12 mph    
Max Gust Speed 16 mph    
Visibility 9 miles    
Events      
T = Trace of Precipitation, MM = Missing Value Source: NWS Daily Summary

Daily Weather History Graph

Daily Weather History Graph

Search for Another Location

Airport or City:

Trip Planner

Search our weather history database for the weather conditions in past years. The results will help you decide how hot, cold, wet, or windy it might be!

Date:

Astronomy

Oct. 23, 2011 Rise Set
Actual Time 7:35 AM EDT 6:23 PM EDT
Civil Twilight 7:07 AM EDT 6:51 PM EDT
Nautical Twilight 6:35 AM EDT 7:23 PM EDT
Astronomical Twilight 6:03 AM EDT 7:55 PM EDT
Moon 3:38 AM EDT (10/23) 4:14 PM EDT (10/23)
Length of Visible Light 11h 43m
Length of Day
10h 47m
Waning Crescent, 14% of the Moon is Illuminated
Oct 23
Waning Crescent
Oct 26
New
Nov 2
First Quarter
Nov 10
Full
Nov 18
Last Quarter

Hourly Weather History & Observations

Time (EDT) Temp. Windchill Dew Point Humidity Pressure Visibility Wind Dir Wind Speed Gust Speed Precip Events Conditions
12:56 AM 37.9 °F 35.5 °F 35.1 °F 89% 30.12 in 10.0 mi ESE 3.5 mph - N/A   Clear
1:56 AM 37.9 °F 34.4 °F 35.1 °F 89% 30.11 in 10.0 mi SE 4.6 mph - N/A   Clear
2:56 AM 37.0 °F 33.3 °F 34.0 °F 89% 30.10 in 10.0 mi ESE 4.6 mph - N/A   Clear
3:56 AM 36.0 °F 32.1 °F 34.0 °F 93% 30.09 in 10.0 mi ESE 4.6 mph - N/A   Clear
4:56 AM 35.1 °F 31.0 °F 33.1 °F 92% 30.09 in 10.0 mi ESE 4.6 mph - N/A   Clear
5:56 AM 34.0 °F - 32.0 °F 92% 30.10 in 10.0 mi Calm Calm - N/A   Clear
6:56 AM 34.0 °F - 32.0 °F 92% 30.12 in 10.0 mi Calm Calm - N/A   Clear
7:56 AM 33.1 °F 30.0 °F 30.9 °F 92% 30.12 in 2.0 mi East 3.5 mph - N/A   Clear
8:22 AM 35.6 °F 32.8 °F 33.8 °F 93% 30.09 in 5.0 mi East 3.5 mph - N/A   Clear
8:56 AM 37.0 °F 34.5 °F 34.0 °F 89% 30.13 in 6.0 mi East 3.5 mph - N/A   Clear
9:56 AM 45.0 °F - 37.9 °F 76% 30.14 in 10.0 mi Calm Calm - N/A   Clear
10:56 AM 50.0 °F - 39.0 °F 66% 30.13 in 10.0 mi WSW 4.6 mph - N/A   Clear
11:56 AM 52.0 °F - 37.9 °F 59% 30.12 in 10.0 mi SSW 8.1 mph - N/A   Clear
12:56 PM 53.1 °F - 37.9 °F 57% 30.11 in 10.0 mi West 10.4 mph - N/A   Mostly Cloudy
1:56 PM 54.0 °F - 37.0 °F 53% 30.08 in 10.0 mi SW 4.6 mph - N/A   Partly Cloudy
2:56 PM 55.9 °F - 36.0 °F 47% 30.07 in 10.0 mi Variable 5.8 mph - N/A   Clear
3:56 PM 55.9 °F - 33.1 °F 42% 30.06 in 10.0 mi Variable 3.5 mph - N/A   Clear
4:56 PM 55.0 °F - 36.0 °F 49% 30.06 in 10.0 mi SSW 9.2 mph - N/A   Clear
5:56 PM 51.1 °F - 36.0 °F 56% 30.07 in 10.0 mi SW 3.5 mph - N/A   Clear
6:56 PM 52.0 °F - 34.0 °F 50% 30.08 in 10.0 mi Calm Calm - N/A   Clear
7:56 PM 50.0 °F - 34.0 °F 54% 30.09 in 10.0 mi SSW 4.6 mph - N/A   Clear
8:56 PM 50.0 °F - 34.0 °F 54% 30.08 in 10.0 mi South 3.5 mph - N/A   Partly Cloudy
9:56 PM 48.9 °F - 35.1 °F 59% 30.08 in 10.0 mi South 3.5 mph - N/A   Clear
10:56 PM 48.9 °F - 35.1 °F 59% 30.07 in 10.0 mi Calm Calm - N/A   Overcast
11:56 PM 50.0 °F - 36.0 °F 59% 30.06 in 10.0 mi South 3.5 mph - N/A   Overcast